User: anonymous   Login
Location: Unspecified
(0.0000°N, 0.0000°E)
Time: 12:57:56
(UTC+00:00)
Language:

Hubble Space Telescope - Orbit

View from above orbital plane
View from above orbital plane
View from above satellite
View from above satellite

Ground track
Ground track

The orbit data is extracted from the following two-line orbital elements,

1 20580U 90037B   17018.21877316  .00000467  00000-0  17858-4 0  9996
2 20580  28.4698 278.3952 0002709   4.1316 257.3921 15.08647698267618
Epoch (UTC): 18 January 2017 05:15:02
Eccentricity: 0.0002709
inclination: 28.4698°
perigee height: 538 km
apogee height: 542 km
right ascension of ascending node: 278.3952°
argument of perigee: 4.1316°
revolutions per day: 15.08647698
mean anomaly at epoch: 257.3921°
orbit number at epoch: 26761

The dashed part of the orbit path shows where the satellite is in the earth's shadow,  

DLR